Погода в Рудянском

Россия / Свердловская область     56°59′00″N   61°56′34″E
темп.,
°C
ветер,
м/с
пор.,
м/с
влажн.,
%
обл.,
%
осадки,
мм/ч
давл.,
гПа
погр.,
м
19 сентября, вс
вс1923:00+2зсз5127953 0.0 1007831
02:00+2зсз51095100 0.0 1007650
05:00+2зсз51196100 0.2 1007566
08:00+2зсз51088100 0.1 1008851
11:00+5зсз6969100 0.2 10091063
14:00+6зсз6957100 0.0 10111248
17:00+6зсз6115698 0.0 10111531
20:00+3зсз6126637 0.0 1014919
20 сентября, пн
пн2023:00+1сз6127480 0.0 1016697
02:00+1зсз5118027 0.0 1017551
05:000сз4118384 0.0 1019515
08:00+2сз51079100 0.0 1021540
11:00+4ссз4767100 0.0 1022824
14:00+5ссз4763100 0.1 10241171
17:00+5ссз4766100 0.1 1025992
20:00+3ссз3773100 0.0 1026612
21 сентября, вт
вт2123:00+3ссз3781100 0.0 1028584
02:000ссз279647 0.0 1029174
05:00−1ссз269711 0.0 1029145
08:00−1с26875 0.0 1030203
11:00+5с23585 0.0 1029843
14:00+9сз22455 0.0 10271187
17:00+9з234344 0.0 10251253
20:00+4юз2260100 0.0 102436
22 сентября, ср
ср2223:00+4зюз3662100 0.0 1024141
02:00+1зсз24825 0.0 102369
05:000зсз24945 0.0 102387
08:00+1ссз25870 0.0 1023150
11:00+7с23575 0.0 1022691
14:00+10ссв22465 0.0 10221158
17:00+10ссв335230 0.0 10211204
20:00+5всв227893 0.0 102222
23 сентября, чт
чт2323:00+6ссв2372100 0.0 102388
02:00+5св1477100 0.0 1023129
05:00+5св1279100 0.0 102357
08:00+5св2280100 0.0 1024155
11:00+7в226593 0.1 1024540
14:00+9в1249100 0.1 10241527
17:00+9в3354100 0.1 1024746
20:00+5в266945 0.0 1025140